Location: Newark
(43.0000°N, 1.6781°W)
Time: 01:23:59
(UTC+00:00)

Vanguard 1 Rocket - Pass Details

Date: 23 April 2021
Orbit: 652 x 4224 km, 34.3° (Epoch: 06 May)

Event Time Altitude Azimuth Distance (km) Brightness Sun altitude
Rises 16:16:19 0° 261° (W) 3,147 11.4 28.4°
Reaches altitude 10° 16:19:15 10° 245° (WSW) 2,084 10.7 27.9°
Maximum altitude 16:22:37 21° 195° (SSW) 1,458 8.9 27.3°
Drops below altitude 10° 16:26:08 10° 145° (SE) 2,175 9.2 26.7°
Sets 16:29:16 0° 129° (SE) 3,331 9.9 26.1°
